Date,TemperatureHighF,TemperatureAvgF,TemperatureLowF,DewpointHighF,DewpointAvgF,DewpointLowF,HumidityHigh,HumidityAvg,HumidityLow,PressureMaxIn,PressureMinIn,WindSpeedMaxMPH,WindSpeedAvgMPH,GustSpeedMaxMPH,PrecipitationSumIn
2013-1-1,21.9,10.6,3.6,8.4,1.7,-4.5,88,68,44,30.56,30.29,14,3,19,0.00
2013-1-2,26.2,12.6,4.5,4.5,-1.8,-7.8,69,53,31,30.63,30.48,10,3,13,0.01
2013-1-3,29.1,11.1,-2.0,1.9,-6.3,-10.5,68,46,21,30.75,30.62,7,2,11,0.00
2013-1-4,39.6,21.2,7.2,9.1,1.1,-7.2,56,42,25,30.66,30.31,5,1,8,0.00
2013-1-5,35.2,23.9,13.3,5.4,0.6,-4.5,53,37,26,30.56,30.33,19,5,26,0.00
2013-1-6,38.5,24.9,9.9,6.3,0.3,-4.7,52,35,24,30.56,30.27,18,7,27,0.00
2013-1-7,39.7,27.7,15.3,7.9,2.2,-1.1,50,34,22,30.28,30.08,15,4,20,0.00
2013-1-8,41.9,31.1,23.5,11.8,5.3,-4.4,57,34,26,30.41,30.06,8,2,10,0.00
2013-1-9,43.9,29.7,18.5,12.7,8.8,5.7,63,43,26,30.56,30.27,13,4,22,0.00
2013-1-10,34.0,25.0,16.5,13.6,7.2,3.9,66,47,32,30.27,29.74,19,8,28,0.00
2013-1-11,24.4,16.6,8.1,20.7,4.8,-7.1,90,61,33,30.04,29.45,21,11,32,0.00
2013-1-12,15.3,5.9,-2.7,-3.3,-9.1,-14.1,71,50,26,30.31,30.05,16,5,20,0.00
2013-1-13,9.5,1.5,-6.2,-2.2,-7.3,-13.0,82,66,52,30.49,30.32,13,4,21,0.00
2013-1-14,13.3,3.3,-4.4,3.7,-4.4,-11.7,83,71,49,30.53,30.40,12,2,16,0.00
2013-1-15,29.1,10.6,-6.2,7.0,-3.7,-15.2,68,53,34,30.69,30.53,10,3,14,0.00
2013-1-16,41.7,26.1,13.5,18.0,12.0,4.6,72,56,37,30.67,30.46,8,3,14,0.00
2013-1-17,37.9,26.6,14.5,17.8,14.0,9.9,82,60,43,30.67,30.51,20,6,26,0.00
2013-1-18,43.5,31.0,22.8,14.7,10.2,5.4,57,43,22,30.52,30.29,22,6,24,0.00
2013-1-19,45.0,32.1,19.8,7.9,2.9,-1.8,41,29,19,30.52,30.34,12,5,21,0.00
2013-1-20,44.2,32.6,23.9,4.5,-0.2,-5.6,42,25,15,30.38,30.24,14,4,19,0.00
2013-1-21,47.5,34.0,22.6,8.4,3.6,-2.0,43,28,18,30.36,30.24,24,7,28,0.00
2013-1-22,50.9,38.6,27.3,-1.5,-7.3,-13.4,27,15,8,30.34,30.22,24,6,31,0.00
2013-1-23,59.2,41.4,28.4,-2.9,-9.6,-17.3,18,12,4,30.34,30.23,17,7,24,0.00
2013-1-24,47.5,41.1,34.5,26.2,10.6,-5.3,61,33,14,30.24,30.00,21,10,32,0.00
2013-1-25,46.0,38.8,32.2,29.7,26.5,24.1,75,61,46,30.18,30.07,22,8,29,0.00
2013-1-26,42.6,36.8,32.4,32.5,28.2,22.6,88,72,53,30.08,29.75,18,9,27,0.00
2013-1-27,46.0,38.0,30.0,30.9,26.7,19.9,84,64,44,29.83,29.73,24,11,33,0.00
2013-1-28,39.4,29.7,21.0,28.4,22.4,9.9,85,74,53,29.79,29.57,23,7,26,0.00
2013-1-29,24.4,17.6,8.4,13.3,-0.1,-11.2,70,47,22,30.16,29.69,17,6,24,0.00
2013-1-30,25.3,18.6,7.9,10.0,1.2,-9.0,53,46,38,30.32,30.16,25,11,38,0.00
2013-1-31,36.7,29.6,24.8,14.9,12.2,8.4,62,48,38,30.37,30.25,29,14,38,0.00